Torna al catalogo

STARLINK-34830

AttivoComunicazioniVLEO
NORAD 65405·PAYLOAD·🇺🇸 United States

Lanciato Aug 31, 2025 da Cape Canaveral Space Force Station

Loading…

Prossimi Passaggi (prossime 24 ore)

TLE

AggiornatoSource: CelesTrak SupGP

Epoca: Sep 14, 2026, 21:04 UTC

1 65405C 25192B   26257.87826389  .00017021  00000+0  54742-3 0  2574
2 65405  53.1590  72.1651 0001161  81.2343 146.2072 15.31688489    13

Traccia STARLINK-34830 in tempo reale con AllMySat

Download on the App Store